�������l�o���
Date,Time,MP-1(��Sv/h),MP-2(��Sv/h),MP-3(��Sv/h),MP-4(��Sv/h),MP-5(��Sv/h),MP-6(��Sv/h),MP-7(��Sv/h),MP-8(��Sv/h),����,����(m/s),���J
2020/12/07,00:00,0.665,0.954,0.606,1.205,0.848,0.381,0.672,0.633,�쓌,0.9,��
2020/12/07,00:10,0.663,0.954,0.608,1.206,0.847,0.381,0.671,0.633,�쓌,1.9,��
2020/12/07,00:20,0.665,0.952,0.607,1.204,0.848,0.382,0.672,0.633,�쓌,2.0,��
2020/12/07,00:30,0.663,0.951,0.606,1.207,0.845,0.380,0.671,0.632,��쓌,2.0,��
2020/12/07,00:40,0.663,0.951,0.608,1.203,0.845,0.382,0.672,0.633,���쐼,0.9,��
2020/12/07,00:50,0.663,0.952,0.609,1.206,0.847,0.381,0.672,0.635,���쐼,0.9,��
2020/12/07,01:00,0.664,0.952,0.606,1.205,0.849,0.381,0.671,0.633,���k��,2.0,��
2020/12/07,01:10,0.664,0.952,0.604,1.203,0.847,0.382,0.673,0.633,���쓌,0.9,��
2020/12/07,01:20,0.661,0.953,0.607,1.204,0.846,0.382,0.673,0.633,�쓌,0.9,��
2020/12/07,01:30,0.665,0.953,0.607,1.204,0.846,0.380,0.671,0.633,��쓌,0.8,��
2020/12/07,01:40,0.664,0.953,0.608,1.204,0.848,0.381,0.672,0.632,-,CALM,��
2020/12/07,01:50,0.664,0.953,0.606,1.205,0.847,0.383,0.673,0.632,��,1.5,��
2020/12/07,02:00,0.664,0.953,0.607,1.206,0.847,0.382,0.673,0.632,��,1.2,��
2020/12/07,02:10,0.664,0.952,0.607,1.204,0.845,0.380,0.671,0.632,��쓌,0.8,��
2020/12/07,02:20,0.664,0.951,0.608,1.202,0.847,0.380,0.673,0.633,-,CALM,��
2020/12/07,02:30,0.664,0.953,0.606,1.207,0.847,0.381,0.669,0.633,��,4.3,��
2020/12/07,02:40,0.664,0.953,0.606,1.206,0.845,0.382,0.672,0.632,��,5.0,��
2020/12/07,02:50,0.665,0.952,0.608,1.203,0.847,0.383,0.672,0.632,�쐼,3.0,��
2020/12/07,03:00,0.665,0.952,0.607,1.202,0.845,0.381,0.671,0.631,��쐼,2.6,��
2020/12/07,03:10,0.664,0.953,0.605,1.204,0.846,0.382,0.672,0.632,�쐼,2.0,��
2020/12/07,03:20,0.664,0.952,0.606,1.206,0.845,0.382,0.673,0.633,��,1.9,��
2020/12/07,03:30,0.664,0.952,0.606,1.205,0.846,0.381,0.672,0.632,���k��,1.9,��
2020/12/07,03:40,0.664,0.951,0.606,1.203,0.846,0.382,0.673,0.632,��,1.1,��
2020/12/07,03:50,0.664,0.953,0.606,1.206,0.847,0.381,0.672,0.633,��쐼,1.7,��
2020/12/07,04:00,0.664,0.949,0.606,1.204,0.844,0.382,0.673,0.633,��쐼,1.7,��
2020/12/07,04:10,0.664,0.952,0.608,1.205,0.845,0.383,0.671,0.633,��쐼,2.0,��
2020/12/07,04:20,0.664,0.951,0.608,1.203,0.847,0.382,0.673,0.632,��쐼,3.1,��
2020/12/07,04:30,0.664,0.951,0.607,1.204,0.846,0.381,0.672,0.633,��쐼,3.8,��
2020/12/07,04:40,0.664,0.952,0.607,1.206,0.846,0.382,0.672,0.632,�쐼,2.8,��
2020/12/07,04:50,0.663,0.954,0.605,1.204,0.845,0.381,0.672,0.634,�쐼,2.2,��
2020/12/07,05:00,0.664,0.951,0.606,1.203,0.845,0.380,0.671,0.634,�쐼,1.7,��
2020/12/07,05:10,0.665,0.950,0.609,1.205,0.844,0.382,0.672,0.632,��쐼,3.0,��
2020/12/07,05:20,0.664,0.953,0.606,1.206,0.844,0.382,0.672,0.632,��쐼,5.8,��
2020/12/07,05:30,0.664,0.953,0.606,1.204,0.846,0.382,0.672,0.632,��쐼,7.0,��
2020/12/07,05:40,0.664,0.951,0.606,1.204,0.845,0.381,0.673,0.632,��,7.3,��
2020/12/07,05:50,0.665,0.950,0.608,1.202,0.846,0.381,0.673,0.633,��,8.9,��
2020/12/07,06:00,0.664,0.953,0.607,1.206,0.846,0.381,0.672,0.634,��,9.7,��
2020/12/07,06:10,0.663,0.952,0.606,1.207,0.846,0.382,0.672,0.634,��,8.6,��
2020/12/07,06:20,0.665,0.954,0.607,1.203,0.845,0.382,0.671,0.635,��,8.0,��
2020/12/07,06:30,0.664,0.952,0.606,1.203,0.845,0.382,0.672,0.634,��,7.4,��
2020/12/07,06:40,0.666,0.952,0.608,1.204,0.845,0.382,0.673,0.633,��,6.8,��
2020/12/07,06:50,0.664,0.954,0.607,1.207,0.847,0.381,0.672,0.634,��쐼,6.5,��
2020/12/07,07:00,0.666,0.953,0.607,1.206,0.847,0.382,0.674,0.634,��,6.5,��
2020/12/07,07:10,0.665,0.954,0.606,1.204,0.845,0.382,0.674,0.633,��쐼,8.4,��
2020/12/07,07:20,0.666,0.953,0.607,1.204,0.845,0.382,0.674,0.633,��쐼,9.0,��
2020/12/07,07:30,0.666,0.952,0.609,1.204,0.847,0.380,0.675,0.632,��,9.3,��
2020/12/07,07:40,0.664,0.954,0.608,1.206,0.847,0.381,0.674,0.634,��,7.7,��
2020/12/07,07:50,0.664,0.952,0.607,1.206,0.847,0.382,0.673,0.633,��쐼,7.4,��
2020/12/07,08:00,0.667,0.951,0.606,1.205,0.847,0.382,0.673,0.634,��,5.4,��
2020/12/07,08:10,0.665,0.953,0.608,1.205,0.847,0.383,0.674,0.635,��쐼,5.6,��
2020/12/07,08:20,0.667,0.953,0.608,1.205,0.847,0.381,0.675,0.634,��,6.0,��
2020/12/07,08:30,0.667,0.955,0.610,1.207,0.847,0.383,0.675,0.633,��쐼,4.0,��
2020/12/07,08:40,0.666,0.953,0.608,1.206,0.848,0.382,0.674,0.634,�쐼,5.3,��
2020/12/07,08:50,0.670,0.955,0.610,1.206,0.847,0.382,0.675,0.633,�쐼,4.9,��
2020/12/07,09:00,0.669,0.952,0.609,1.205,0.847,0.384,0.674,0.633,��쐼,4.6,��
2020/12/07,09:10,0.669,0.952,0.607,1.205,0.848,0.383,0.674,0.634,��쐼,5.4,��
2020/12/07,09:20,0.669,0.949,0.609,1.204,0.848,0.381,0.673,0.635,�쐼,5.2,��
2020/12/07,09:30,0.669,0.948,0.610,1.207,0.851,0.384,0.673,0.634,���쐼,6.4,��
2020/12/07,09:40,0.668,0.949,0.609,1.205,0.850,0.382,0.672,0.633,�쐼,6.3,��
2020/12/07,09:50,0.669,0.949,0.608,1.203,0.848,0.382,0.673,0.634,���쐼,5.9,��
2020/12/07,10:00,0.668,0.948,0.609,1.205,0.848,0.384,0.673,0.634,���쐼,6.6,��
2020/12/07,10:10,0.669,0.951,0.606,1.203,0.849,0.384,0.672,0.635,��,6.6,��
2020/12/07,10:20,0.668,0.948,0.606,1.205,0.848,0.383,0.673,0.636,��,4.5,��
2020/12/07,10:30,0.670,0.949,0.609,1.205,0.849,0.384,0.674,0.635,���쐼,5.4,��
2020/12/07,10:40,0.670,0.952,0.609,1.206,0.848,0.384,0.673,0.635,��,3.9,��
2020/12/07,10:50,0.669,0.953,0.609,1.207,0.848,0.383,0.674,0.636,��,6.9,��
2020/12/07,11:00,0.668,0.952,0.608,1.208,0.850,0.382,0.672,0.634,���쐼,5.6,��
2020/12/07,11:10,0.669,0.954,0.610,1.207,0.850,0.383,0.674,0.633,���쐼,6.3,��
2020/12/07,11:20,0.670,0.951,0.611,1.208,0.849,0.385,0.674,0.632,��,5.7,��
2020/12/07,11:30,0.670,0.955,0.610,1.207,0.849,0.384,0.673,0.634,���k��,7.6,��
2020/12/07,11:40,0.669,0.954,0.610,1.207,0.850,0.386,0.673,0.634,���쐼,3.7,��
2020/12/07,11:50,0.670,0.956,0.610,1.206,0.850,0.384,0.674,0.634,��,3.9,��
2020/12/07,12:00,0.671,0.957,0.611,1.210,0.849,0.383,0.673,0.635,���쐼,5.1,��
2020/12/07,12:10,0.670,0.957,0.610,1.207,0.849,0.383,0.674,0.636,���쐼,5.8,��
2020/12/07,12:20,0.670,0.957,0.609,1.210,0.852,0.383,0.674,0.634,���쐼,6.8,��
2020/12/07,12:30,0.671,0.955,0.611,1.208,0.852,0.383,0.674,0.635,���쐼,7.0,��
2020/12/07,12:40,0.671,0.955,0.610,1.208,0.850,0.383,0.673,0.635,��,8.3,��
2020/12/07,12:50,0.670,0.958,0.612,1.209,0.851,0.383,0.675,0.636,���쐼,6.0,��
2020/12/07,13:00,0.671,0.953,0.611,1.208,0.850,0.383,0.674,0.635,��,5.5,��
2020/12/07,13:10,0.670,0.955,0.610,1.209,0.850,0.382,0.674,0.635,��,7.0,��
2020/12/07,13:20,0.670,0.954,0.611,1.208,0.851,0.384,0.674,0.633,��,4.6,��
2020/12/07,13:30,0.669,0.950,0.609,1.207,0.851,0.384,0.674,0.634,��,5.7,��
2020/12/07,13:40,0.669,0.951,0.608,1.210,0.850,0.383,0.674,0.632,��,5.1,��
2020/12/07,13:50,0.668,0.952,0.610,1.209,0.851,0.384,0.675,0.631,���쐼,6.0,��
2020/12/07,14:00,0.669,0.954,0.609,1.210,0.850,0.384,0.674,0.632,��,6.1,��
2020/12/07,14:10,0.668,0.953,0.608,1.211,0.850,0.383,0.674,0.633,��,5.8,��
2020/12/07,14:20,0.670,0.954,0.608,1.210,0.851,0.383,0.676,0.632,���쐼,4.1,��
2020/12/07,14:30,0.670,0.953,0.610,1.210,0.849,0.384,0.673,0.634,��,4.8,��
2020/12/07,14:40,0.668,0.952,0.609,1.210,0.850,0.384,0.675,0.634,���쐼,2.9,��
2020/12/07,14:50,0.668,0.950,0.609,1.210,0.850,0.383,0.674,0.632,���쐼,3.2,��
2020/12/07,15:00,0.667,0.958,0.610,1.209,0.852,0.384,0.675,0.634,��,2.8,��
2020/12/07,15:10,0.668,0.956,0.612,1.210,0.852,0.384,0.675,0.635,��,3.0,��
2020/12/07,15:20,0.668,0.954,0.612,1.212,0.852,0.384,0.675,0.634,�k�k��,4.2,��
2020/12/07,15:30,0.670,0.957,0.611,1.212,0.850,0.383,0.674,0.635,�k,4.2,��
2020/12/07,15:40,0.671,0.960,0.612,1.211,0.853,0.384,0.676,0.635,�k,2.2,��
2020/12/07,15:50,0.673,0.958,0.611,1.212,0.850,0.383,0.675,0.634,���k��,3.5,��
2020/12/07,16:00,0.671,0.958,0.613,1.211,0.850,0.384,0.675,0.637,�k��,3.0,��
2020/12/07,16:10,0.671,0.960,0.611,1.211,0.854,0.385,0.675,0.637,�k��,3.5,��
2020/12/07,16:20,0.671,0.958,0.612,1.210,0.853,0.382,0.675,0.636,�k�k��,2.5,��
2020/12/07,16:30,0.672,0.958,0.612,1.209,0.853,0.384,0.674,0.636,���k��,1.7,��
2020/12/07,16:40,0.670,0.959,0.611,1.209,0.854,0.384,0.675,0.636,�k��,1.7,��
2020/12/07,16:50,0.671,0.959,0.611,1.209,0.852,0.385,0.675,0.636,�k�k��,1.7,��
2020/12/07,17:00,0.672,0.958,0.610,1.211,0.850,0.384,0.676,0.634,�k,2.6,��
2020/12/07,17:10,0.671,0.957,0.611,1.210,0.853,0.385,0.677,0.634,�k,3.3,��
2020/12/07,17:20,0.671,0.959,0.610,1.210,0.850,0.384,0.675,0.636,�k�k��,3.6,��
2020/12/07,17:30,0.670,0.958,0.610,1.211,0.850,0.383,0.675,0.634,�k�k��,3.1,��
2020/12/07,17:40,0.670,0.957,0.612,1.212,0.850,0.384,0.676,0.635,�k��,3.0,��
2020/12/07,17:50,0.670,0.958,0.611,1.213,0.850,0.383,0.676,0.634,�k��,4.1,��
2020/12/07,18:00,0.670,0.956,0.610,1.210,0.853,0.383,0.675,0.634,�k��,4.0,��
2020/12/07,18:10,0.671,0.959,0.611,1.211,0.854,0.382,0.674,0.635,�k�k��,2.5,��
2020/12/07,18:20,0.670,0.960,0.610,1.212,0.852,0.383,0.676,0.635,�k�k��,4.2,��
2020/12/07,18:30,0.669,0.958,0.611,1.212,0.852,0.383,0.676,0.634,�k,3.5,��
2020/12/07,18:40,0.669,0.959,0.612,1.210,0.853,0.384,0.676,0.635,�k,2.5,��
2020/12/07,18:50,0.671,0.961,0.611,1.209,0.851,0.384,0.677,0.636,�k�k��,3.0,��
2020/12/07,19:00,0.671,0.959,0.613,1.210,0.852,0.383,0.677,0.635,�k,2.5,��
2020/12/07,19:10,0.670,0.961,0.612,1.211,0.851,0.382,0.676,0.634,�k�k��,3.0,��
2020/12/07,19:20,0.669,0.960,0.611,1.210,0.853,0.383,0.676,0.635,�k�k��,3.3,��
2020/12/07,19:30,0.669,0.958,0.610,1.210,0.854,0.383,0.675,0.635,�k�k��,2.8,��
2020/12/07,19:40,0.669,0.959,0.611,1.210,0.853,0.383,0.674,0.636,�k,3.2,��
2020/12/07,19:50,0.671,0.960,0.611,1.210,0.852,0.383,0.676,0.636,�k,2.9,��
2020/12/07,20:00,0.671,0.960,0.611,1.211,0.853,0.382,0.676,0.636,�k,2.3,��
2020/12/07,20:10,0.671,0.960,0.610,1.211,0.854,0.384,0.676,0.634,�k,1.7,��
2020/12/07,20:20,0.669,0.961,0.610,1.211,0.852,0.384,0.676,0.636,�k�k��,2.0,��
2020/12/07,20:30,0.670,0.960,0.611,1.211,0.853,0.383,0.675,0.634,�k�k��,2.3,��
2020/12/07,20:40,0.670,0.960,0.610,1.211,0.852,0.382,0.675,0.635,�k�k��,2.2,��
2020/12/07,20:50,0.671,0.961,0.611,1.212,0.852,0.384,0.676,0.635,�k,2.3,��
2020/12/07,21:00,0.669,0.960,0.609,1.210,0.853,0.383,0.675,0.635,�k,2.8,��
2020/12/07,21:10,0.671,0.960,0.612,1.211,0.852,0.384,0.676,0.636,�k,2.6,��
2020/12/07,21:20,0.669,0.961,0.612,1.209,0.850,0.384,0.675,0.635,�k�k��,2.6,��
2020/12/07,21:30,0.670,0.959,0.612,1.209,0.853,0.384,0.676,0.636,�k,2.8,��
2020/12/07,21:40,0.670,0.959,0.613,1.210,0.852,0.384,0.675,0.635,�k,2.8,��
2020/12/07,21:50,0.670,0.963,0.611,1.211,0.854,0.383,0.675,0.635,�k�k��,3.2,��
2020/12/07,22:00,0.670,0.960,0.609,1.209,0.852,0.384,0.676,0.635,�k�k��,3.4,��
2020/12/07,22:10,0.668,0.960,0.612,1.212,0.853,0.383,0.676,0.634,�k�k��,3.7,��
2020/12/07,22:20,0.671,0.959,0.610,1.211,0.851,0.383,0.675,0.634,�k,2.9,��
2020/12/07,22:30,0.672,0.960,0.612,1.212,0.851,0.384,0.676,0.636,�k�k��,2.5,��
2020/12/07,22:40,0.670,0.961,0.609,1.210,0.854,0.384,0.675,0.634,�k�k��,2.3,��
2020/12/07,22:50,0.669,0.960,0.610,1.210,0.853,0.385,0.674,0.635,�k�k��,1.2,��
2020/12/07,23:00,0.669,0.962,0.611,1.210,0.854,0.383,0.675,0.635,�k�k��,1.4,��
2020/12/07,23:10,0.671,0.962,0.612,1.212,0.852,0.384,0.675,0.634,�k�k��,0.9,��
2020/12/07,23:20,0.670,0.961,0.612,1.212,0.852,0.384,0.675,0.636,�k�k��,1.2,��
2020/12/07,23:30,0.671,0.959,0.612,1.211,0.853,0.385,0.675,0.636,-,CALM,��
2020/12/07,23:40,0.671,0.961,0.612,1.210,0.854,0.383,0.676,0.634,-,CALM,��
2020/12/07,23:50,0.670,0.959,0.613,1.210,0.854,0.383,0.676,0.636,�쐼,0.6,��
